Other Public Products
Issued by NWS Grand Forks, ND

Home | Current Version | Previous Version | Graphics & Text | Print | Product List | Glossary On
Versions: 1 2 3 4 5 6 7 8 9 10 11 12 13 14 15 16 17 18 19 20 21 22 23 24 25 26 27 28 29 30 31 32 33 34 35 36 37 38 39 40 41 42 43 44 45 46 47 48 49 50
000
FPUS83 KFGF 051810
OPUFGF
PRAIRIE TO PINES WEATHER ROUNDUP
NATIONAL WEATHER SERVICE EASTERN NORTH DAKOTA/GRAND FORKS ND
100 PM CDT SUN JUL 05 2015

 **SATELLITE DATA USED TO AUGMENT SKY COVER AT AUTOMATED STATIONS**
 *****  WEATHER ACROSS EASTERN NORTH DAKOTA  *****

CITY           SKY/WX    TMP DP  RH WIND       PRES   REMARKS
GRAND FORKS    TSTM      67  66  97 NE15      29.71F
6HR MIN TEMP:  66; 6HR MAX TEMP:  75; 6HR PCP:  0.44;

GRAND FORKS AF LGT RAIN  66  65  96 E8        29.72F
GRAND CITY NWS   N/A     64 N/A N/A NE10        N/A
BUXTON         NOT AVBL
DEVILS LAKE    PTSUNNY   70  63  78 N12       29.78R
6HR MIN TEMP:  64; 6HR MAX TEMP:  70; 6HR PCP:  0.77;

FARGO          CLOUDY    83  69  62 W12       29.76R
6HR MIN TEMP:  70; 6HR MAX TEMP:  84;

WAHPETON ARPT  MOCLDY    82  64  54 S10       29.77S
$$

 *****  WEATHER ACROSS CENTRAL AND WESTERN NORTH DAKOTA  *****

CITY           SKY/WX    TMP DP  RH WIND       PRES   REMARKS
JAMESTOWN      CLOUDY    70  64  81 NE5       29.78F
6HR MIN TEMP:  68; 6HR MAX TEMP:  76; 6HR PCP: TRACE;

BISMARCK       PTSUNNY   73  64  73 N6        29.83R
6HR MIN TEMP:  67; 6HR MAX TEMP:  74; 6HR PCP: TRACE;

MINOT          MOSUNNY   73  62  68 NW13G23   29.86R HAZE
6HR MIN TEMP:  64; 6HR MAX TEMP:  73; 6HR PCP:  0.39;

MINOT AFB      MOSUNNY   76  69  80 NW18      29.85R
6HR MIN TEMP:  64; 6HR MAX TEMP:  76; 6HR PCP:  0.33;

GARRISON         N/A     73  61  65 N13       29.88R
6HR MIN TEMP:  64; 6HR MAX TEMP:  73; 6HR PCP:  0.24;

WILLISTON      CLOUDY    74  52  46 N18       29.95S HAZE
6HR MIN TEMP:  64; 6HR MAX TEMP:  74; 6HR PCP:  0.01;

DICKINSON      PTSUNNY   71  60  68 N16G28    29.90R
6HR MIN TEMP:  62; 6HR MAX TEMP:  72; 6HR PCP:  0.07;

HETTINGER      CLOUDY    77  62  59 N12       29.86R
6HR MIN TEMP:  63; 6HR MAX TEMP:  78;

$$

 *****  OTHER OBSERVATIONS NORTHEAST NORTH DAKOTA  *****

CITY           SKY/WX    TMP DP  RH WIND       PRES   REMARKS
WALHALLA       FAIR      66  66 100 MISG      29.79R
LANGDON        CLOUDY    68  66  94 NE10      29.80R
CAVALIER       LGT RAIN  66  66 100 NE3       29.78R
GRAFTON        CLOUDY    66  66 100 NE8       29.75F FOG
CANDO          MOCLDY    73  66  78 N9        29.81R
FORT TOTTEN      N/A     71  69  92 N5        29.95
ROLLA          MOCLDY    68  66  94 N16       29.86R
RUGBY          NOT AVBL
 ***** THE ABOVE OBSERVATIONS ARE NON NWS ARE NOT QUALITY
        CONTROLLED AND MAY MIS-REPORT RAIN FOR SNOW...
$$

 *****  OTHER OBSERVATIONS SOUTHEAST NORTH DAKOTA *****

CITY           SKY/WX    TMP DP  RH WIND       PRES   REMARKS
COOPERSTOWN    NOT AVBL
VALLEY CITY    CLOUDY    70  70 100 N6        29.80R
OAKES            N/A     81  75  83 W13       29.78S
GWINNER        FAIR      84  70  61 SW13      29.78S
BUFFALO        NOT AVBL
WYNDMERE       NOT AVBL
 ***** THE ABOVE OBSERVATIONS ARE NON NWS ARE NOT QUALITY
       CONTROLLED AND MAY MIS-REPORT RAIN FOR SNOW...
$$

  *****  WEATHER ACROSS NORTHERN MINNESOTA  *****

CITY           SKY/WX    TMP DP  RH WIND       PRES   REMARKS
FLAG ISLAND    TSTM      70  64  83 CALM      29.75S
WARROAD        TSTM      66  63  88 SE6       29.77F
ROSEAU         TSTM      66  61  82 SW5       29.80R
HALLOCK        TSTM      66  64  94 E8        29.75F
THF RVR FALLS  CLOUDY    66  64  94 NW14      29.82R
6HR MIN TEMP:  66; 6HR MAX TEMP:  73; 6HR PCP:  0.02;

HALSTAD        NOT AVBL
FOSSTON        CLOUDY    75  66  73 W9        29.83R
BAUDETTE       CLOUDY    72  67  84 S6        29.76F
6HR MIN TEMP:  65; 6HR MAX TEMP:  74; 6HR PCP:  0.01;

WASKISH        CLOUDY    75  70  83 W5        29.79R
CROOKSTON      CLOUDY    66  64  94 N13       29.78F
$$
  *****  WEATHER ACROSS CENTRAL AND WEST MINNESOTA  *****

CITY           SKY/WX    TMP DP  RH WIND       PRES   REMARKS
BEMIDJI        CLOUDY    81  68  64 SW8       29.80R
PARK RAPIDS    PTSUNNY   86  66  51 SW12      29.81R
6HR MIN TEMP:  68; 6HR MAX TEMP:  86;

WADENA         PTSUNNY   84  64  51 S13       29.81S
DETROIT LAKES  CLOUDY    82  64  54 S14       29.82R
MOORHEAD       CLOUDY    82  72  69 W9        29.77R
FERGUS FALLS   PTSUNNY   82  66  57 SW12      29.78S
ELBOW LAKE     FAIR      82  68  63 S13       29.80S
6HR MIN TEMP:  67; 6HR MAX TEMP:  82;

MORRIS MN      MOSUNNY   84  66  54 S9        29.79S
STAPLES        MOSUNNY   82  64  54 S13       29.83R
WHEATON        PTSUNNY   84  66  54 S9        29.78F
$$
  *****  WEATHER ELSEWHERE ACROSS MINNESOTA  *****

CITY           SKY/WX    TMP DP  RH WIND       PRES   REMARKS
DULUTH         MOSUNNY   80  65  59 S14       29.88S
6HR MIN TEMP:  59; 6HR MAX TEMP:  80;

INTRNTL FALLS  CLOUDY    79  68  69 S6        29.78F
6HR MIN TEMP:  64; 6HR MAX TEMP:  79;

ELY            MOSUNNY   81  63  54 SW12      29.85S
CLOQUET        MOSUNNY   79  63  57 S13G20    29.88R
BRAINERD       MOSUNNY   82  65  56 S16       29.84S
6HR MIN TEMP:  66; 6HR MAX TEMP:  83;

HIBBING        PTSUNNY   81  66  60 S8        29.83F
6HR MIN TEMP:  58; 6HR MAX TEMP:  81;

ALEXANDRIA     MOSUNNY   83  66  56 S7        29.85R
6HR MIN TEMP:  66; 6HR MAX TEMP:  83;

SAINT CLOUD    MOSUNNY   81  66  60 S13       29.87R
6HR MIN TEMP:  63; 6HR MAX TEMP:  82;

MINNEAPOLIS    CLOUDY    82  66  58 S17       29.88R
6HR MIN TEMP:  68; 6HR MAX TEMP:  82;

$$

  *****  WEATHER ACROSS SOUTH DAKOTA  *****

CITY           SKY/WX    TMP DP  RH WIND       PRES   REMARKS
SIOUX FALLS    MOSUNNY   86  66  51 S16       29.79F
6HR MIN TEMP:  67; 6HR MAX TEMP:  86; 6HR PCP:  0.04;

BROOKINGS      SUNNY     82  68  61 S14G25    29.83R
WATERTOWN      MOSUNNY   86  68  54 SW21      29.79R
6HR MIN TEMP:  68; 6HR MAX TEMP:  86;

HURON          SUNNY     86  71  60 SW14      29.77R HX  91
6HR MIN TEMP:  68; 6HR MAX TEMP:  86;

SISSETON         N/A     87  66  49 W8        29.76S
ABERDEEN       SUNNY     86  72  62 SW10      29.77R HX  92
6HR MIN TEMP:  67; 6HR MAX TEMP:  86;

MITCHELL       MOSUNNY   88  70  55 S15G23    29.76F HX  93
PIERRE         CLOUDY    83  69  62 E7        29.76F
6HR MIN TEMP:  67; 6HR MAX TEMP:  83;

MOBRIDGE       CLOUDY    79  68  69 NE14      29.78F
RAPID CITY     CLOUDY    79  63  57 NE16      29.88R
6HR MIN TEMP:  65; 6HR MAX TEMP:  80;

$$

  *****  SOME WEATHER IN NEARBY STATES *****

CITY           SKY/WX    TMP DP  RH WIND       PRES   REMARKS
GLASGOW MT     CLOUDY    68  47  46 N18G26    30.04R
6HR MIN TEMP:  58; 6HR MAX TEMP:  71; 6HR PCP: TRACE;

GREAT FALLS MT LGT RAIN  51  50  96 N13       30.17S FOG
6HR MIN TEMP:  51; 6HR MAX TEMP:  53; 6HR PCP:  0.21;

CHEYENNE WY    MOSUNNY   89  49  25 SW5       30.03S
6HR MIN TEMP:  64; 6HR MAX TEMP:  89;

SCOTTSBLUFF NE MOSUNNY   90  55  30 W7        29.86F
6HR MIN TEMP:  63; 6HR MAX TEMP:  93;

OMAHA NE       CLOUDY    80  69  69 S21       29.87F
6HR MIN TEMP:  70; 6HR MAX TEMP:  80;

DES MOINES IA  CLOUDY    82  69  64 S10       29.95F
6HR MIN TEMP:  66; 6HR MAX TEMP:  84;

DAVENPORT IA   MOSUNNY   80  66  62 S8        30.04F
6HR MIN TEMP:  64; 6HR MAX TEMP:  80;

CHICAGO IL     MOSUNNY   80  60  50 S7        30.07F
6HR MIN TEMP:  64; 6HR MAX TEMP:  81;

EAU CLAIRE WI  MOSUNNY   82  63  52 S10       29.94S
6HR MIN TEMP:  66; 6HR MAX TEMP:  82;

LA CROSSE WI   MOSUNNY   83  63  50 S10       29.97F
6HR MIN TEMP:  66; 6HR MAX TEMP:  84;

$$

  *****  SOME NATIONAL WEATHER *****

CITY           SKY/WX    TMP DP  RH WIND       PRES   REMARKS
LA GUARDIA NY  PTSUNNY   82  58  43 W6        30.11S



USA.gov is the U.S. government's official web portal to all federal, state and local government web resources and services.